This is the latest recevied weather packets stored in our database for station/object WW5JC. If no packets are shown the sender has not sent any weather packets the latest 10 day(s).
| Time | Temp. | Humidity | Pressure | Rain* | Wind** | Luminosity | Snow |
|---|---|---|---|---|---|---|---|
| 1777922772 | 25° C | 53% | 1012.6 hPa | 0 mm | - | 702 W/m² | - |
| 1777922470 | 24.44° C | 54% | 1012.8 hPa | 0 mm | - | 698 W/m² | - |
| 1777922168 | 25° C | 55% | 1012.8 hPa | 0 mm | - | 702 W/m² | - |
| 1777921863 | 24.44° C | 53% | 1012.8 hPa | 0 mm | - | 691 W/m² | - |
| 1777921560 | 24.44° C | 55% | 1012.8 hPa | 0 mm | - | 708 W/m² | - |
| 1777921256 | 24.44° C | 55% | 1013.1 hPa | 0 mm | - | 660 W/m² | - |
| 1777920953 | 25° C | 57% | 1013.1 hPa | 0 mm | - | 706 W/m² | - |
| 1777920650 | 25° C | 53% | 1013.1 hPa | 0 mm | - | 706 W/m² | - |
| 1777920345 | 24.44° C | 55% | 1013.1 hPa | 0 mm | - | 733 W/m² | - |
| 1777920040 | 24.44° C | 53% | 1013.2 hPa | 0 mm | - | 713 W/m² | - |
| 1777919738 | 24.44° C | 55% | 1013.1 hPa | 0 mm | - | 712 W/m² | - |
| 1777919436 | 24.44° C | 52% | 1013.4 hPa | 0 mm | - | 714 W/m² | - |
| 1777919132 | 24.44° C | 53% | 1013.4 hPa | 0 mm | - | 726 W/m² | - |
| 1777918830 | 23.89° C | 52% | 1013.5 hPa | 0 mm | - | 742 W/m² | - |
| 1777918527 | 23.89° C | 52% | 1013.6 hPa | 0 mm | - | 643 W/m² | - |
| 1777918226 | 23.89° C | 52% | 1013.8 hPa | 0 mm | - | 670 W/m² | - |
| 1777917924 | 23.89° C | 52% | 1013.7 hPa | 0 mm | - | 727 W/m² | - |
| 1777917623 | 23.89° C | 53% | 1013.8 hPa | 0 mm | - | 742 W/m² | - |
| 1777917319 | 23.89° C | 54% | 1013.9 hPa | 0 mm | - | 753 W/m² | - |
| 1777917016 | 23.89° C | 54% | 1014.1 hPa | 0 mm | - | 606 W/m² | - |
| 1777916714 | 23.89° C | 50% | 1014.3 hPa | 0 mm | - | 709 W/m² | - |
| 1777916411 | 23.89° C | 53% | 1014.3 hPa | 0 mm | - | 700 W/m² | - |
| 1777916107 | 23.89° C | 51% | 1014.4 hPa | 0 mm | - | 712 W/m² | - |
| 1777915805 | 23.89° C | 52% | 1014.5 hPa | 0 mm | - | 677 W/m² | - |
| 1777915501 | 23.89° C | 53% | 1014.5 hPa | 0 mm | - | 599 W/m² | - |
* Rain latest hour (hover to see other rain measurements)
** Current wind speed in m/s (hover to see current wind gust speed)